Springfield, IL

8:49 AM CST on February 08, 2016 (GMT -0600)
Capital

Weather History for KSPI - November, 2012

Change the Weather History Date:

Wednesday, November 21, 2012

  Actual Average Record
Temperature  
Mean Temperature 51 °F 40 °F  
Max Temperature 59 °F 49 °F 75 °F (1913)
Min Temperature 42 °F 32 °F 6 °F (1880)
Degree Days  
Heating Degree Days 14 25  
Month to date heating degree days 407 415  
Since 1 July heating degree days 849 825  
Cooling Degree Days 0 0  
Month to date cooling degree days 1 0  
Year to date cooling degree days 1534 1121  
Moisture  
Dew Point 45 °F    
Average Humidity 84    
Maximum Humidity 100    
Minimum Humidity 67    
Precipitation  
Precipitation 0.00 in 0.10 in 1.58 in (2007)
Month to date precipitation 1.13 2.23  
Year to date precipitation 26.78 33.93  
Snow  
Snow 0.00 in 0.10 in 0.20 in (1950)
Month to date snowfall 0.0 0.3  
Since 1 July snowfall 0.0 0.3  
Since 1 September snowfall 0.0 0.3  
Snow Depth 0.00 in    
Sea Level Pressure  
Sea Level Pressure 30.22 in    
Wind  
Wind Speed 6 mph (SSW)    
Max Wind Speed 15 mph    
Max Gust Speed 20 mph    
Visibility 3 miles    
Events Fog    
T = Trace of Precipitation, MM = Missing Value Source: NWS Daily Summary

Daily Weather History Graph

Daily Weather History Graph

Search for Another Location

Airport or City:

Trip Planner

Search our weather history database for the weather conditions in past years. The results will help you decide how hot, cold, wet, or windy it might be!

Date:

Astronomy

Nov. 21, 2012 Rise Set
Actual Time 6:50 AM CST 4:38 PM CST
Civil Twilight 6:21 AM CST 5:07 PM CST
Nautical Twilight 5:48 AM CST 5:40 PM CST
Astronomical Twilight 5:16 AM CST 6:12 PM CST
Moon 12:54 PM CST (11/21) 12:10 AM CST (11/21)
Length of Visible Light 10h 46m
Length of Day
9h 47m
First Quarter, 62% of the Moon is Illuminated
Nov 21
First Quarter
Nov 28
Full
Dec 6
Last Quarter
Dec 13
New
Dec 19
First Quarter

Hourly Weather History & Observations

Time (CST) Temp. Windchill Dew Point Humidity Pressure Visibility Wind Dir Wind Speed Gust Speed Precip Events Conditions
12:02 AM 44.6 °F 42.2 °F 42.8 °F 93% 30.20 in 0.2 mi West 4.6 mph - N/A Fog Fog
12:10 AM 46.4 °F 44.3 °F 44.6 °F 93% 30.20 in 0.2 mi WNW 4.6 mph - N/A Fog Fog
12:52 AM 46.0 °F 44.8 °F 44.1 °F 93% 30.20 in 0.2 mi WNW 3.5 mph - N/A Fog Fog
1:52 AM 45.0 °F 41.8 °F 44.1 °F 97% 30.22 in 0.2 mi WNW 5.8 mph - N/A Fog Fog
2:52 AM 45.0 °F - 43.0 °F 93% 30.22 in 0.2 mi Calm Calm - N/A Fog Fog
3:52 AM 44.1 °F 42.5 °F 42.1 °F 93% 30.22 in 0.2 mi South 3.5 mph - N/A Fog Fog
4:52 AM 43.0 °F - 42.1 °F 97% 30.24 in 0.2 mi Calm Calm - N/A Fog Fog
5:52 AM 43.0 °F 40.3 °F 41.0 °F 93% 30.24 in 0.2 mi WSW 4.6 mph - N/A Fog Fog
6:52 AM 42.1 °F - 39.9 °F 92% 30.26 in 0.2 mi Calm Calm - N/A Fog Fog
7:01 AM 42.8 °F 41.1 °F 39.2 °F 87% 30.25 in 0.2 mi WSW 3.5 mph - N/A Fog Fog
7:52 AM 42.1 °F 40.2 °F 41.0 °F 96% 30.26 in 0.2 mi SSE 3.5 mph - N/A Fog Fog
8:52 AM 42.1 °F 39.2 °F 41.0 °F 96% 30.29 in 0.2 mi West 4.6 mph - N/A Fog Fog
9:52 AM 44.1 °F 42.5 °F 42.1 °F 93% 30.29 in 0.2 mi SW 3.5 mph - N/A Fog Fog
10:52 AM 46.0 °F 42.5 °F 45.0 °F 96% 30.28 in 0.2 mi South 6.9 mph - N/A Fog Fog
10:54 AM 46.4 °F 44.3 °F 44.6 °F 93% 30.27 in 0.2 mi South 4.6 mph - N/A Fog Fog
11:08 AM 46.4 °F 44.3 °F 46.4 °F 100% 30.26 in 0.5 mi South 4.6 mph - N/A Fog Fog
11:52 AM 48.9 °F - 46.9 °F 93% 30.25 in 0.8 mi SW 4.6 mph - N/A   Overcast
11:56 AM 48.2 °F - 46.4 °F 93% 30.24 in 2.0 mi SW 4.6 mph - N/A   Overcast
12:52 PM 51.1 °F - 48.0 °F 89% 30.23 in 2.0 mi SW 5.8 mph - N/A   Overcast
1:17 PM 53.6 °F - 48.2 °F 82% 30.22 in 3.0 mi SW 5.8 mph - N/A   Haze
1:35 PM 53.6 °F - 48.2 °F 82% 30.22 in 3.0 mi South 4.6 mph - N/A   Overcast
1:52 PM 54.0 °F - 48.9 °F 83% 30.22 in 5.0 mi South 4.6 mph - N/A   Haze
2:06 PM 55.4 °F - 48.2 °F 77% 30.20 in 6.0 mi South 4.6 mph - N/A   Haze
2:52 PM 59.0 °F - 48.9 °F 69% 30.19 in 9.0 mi South 9.2 mph - N/A   Clear
3:52 PM 57.9 °F - 48.0 °F 70% 30.18 in 10.0 mi SSW 11.5 mph - N/A   Clear
4:52 PM 54.0 °F - 46.9 °F 77% 30.17 in 8.0 mi SSW 5.8 mph - N/A   Clear
5:52 PM 48.9 °F - 46.0 °F 90% 30.17 in 6.0 mi South 5.8 mph - N/A   Clear
6:52 PM 51.1 °F - 46.9 °F 86% 30.17 in 6.0 mi South 10.4 mph - N/A   Clear
7:52 PM 50.0 °F - 46.0 °F 86% 30.17 in 6.0 mi South 9.2 mph - N/A   Clear
8:52 PM 48.9 °F - 45.0 °F 86% 30.16 in 4.0 mi South 8.1 mph - N/A   Clear
9:52 PM 48.9 °F - 45.0 °F 86% 30.16 in 4.0 mi South 6.9 mph - N/A   Clear
10:52 PM 52.0 °F - 46.0 °F 80% 30.15 in 6.0 mi South 13.8 mph - N/A   Haze
11:52 PM 51.1 °F - 45.0 °F 80% 30.13 in 7.0 mi South 10.4 mph - N/A   Clear